GW2818 Weather Reports


Display with metric or nautical units.
time (UTC)temp
F
wind
direction
speed
MPH
gust
MPH
rain 1hr
in
rain 24hr
in
rain mn
in
humidity
%
barometer
mb
20240612171527 76 57 0.0 2.0 0.00 0.00 0.00 56 1018.0
20240612170025 74 0 0.0 3.0 0.00 0.00 0.00 58 1018.0
20240612164532 74 60 0.0 4.0 0.00 0.00 0.00 55 1018.3
20240612163025 74 129 1.0 3.0 0.00 0.00 0.00 57 1018.3
20240612161529 73 161 0.0 3.0 0.00 0.00 0.00 58 1018.3
20240612160033 72 0 0.0 5.0 0.00 0.00 0.00 61 1018.4
20240612154531 71 155 0.0 4.0 0.00 0.00 0.00 61 1018.5
20240612153047 71 140 1.0 4.0 0.00 0.00 0.00 62 1018.5
20240612151531 70 143 0.0 5.0 0.00 0.00 0.00 63 1018.5
20240612150038 69 120 0.0 5.0 0.00 0.00 0.00 61 1018.7
20240612144526 68 0 0.0 3.0 0.00 0.00 0.00 63 1018.7
20240612143037 67 91 0.0 3.0 0.00 0.00 0.00 67 1018.9
20240612141544 66 148 0.0 5.0 0.00 0.00 0.00 73 1018.9
20240612140040 65 153 0.0 3.0 0.00 0.00 0.00 72 1019.0
20240612134530 64 0 0.0 4.0 0.00 0.00 0.00 74 1019.0
20240612133031 63 131 0.0 3.0 0.00 0.00 0.00 78 1018.8
20240612131543 61 0 0.0 3.0 0.00 0.00 0.00 82 1018.9
20240612130037 59 0 0.0 1.0 0.00 0.00 0.00 86 1018.9
20240612124533 58 0 0.0 1.0 0.00 0.00 0.00 87 1018.9
20240612123032 56 0 0.0 0.0 0.00 0.00 0.00 89 1018.9
20240612121535 55 0 0.0 0.0 0.00 0.00 0.00 90 1018.8
20240612120028 55 0 0.0 1.0 0.00 0.00 0.00 91 1018.7
20240612114554 53 0 0.0 1.0 0.00 0.00 0.00 95 1018.8
20240612113036 52 0 0.0 1.0 0.00 0.00 0.00 96 1018.7
20240612111550 50 0 0.0 0.0 0.00 0.00 0.00 96 1018.5
20240612110030 50 0 0.0 0.0 0.00 0.00 0.00 96 1018.5
20240612104526 49 0 0.0 0.0 0.00 0.00 0.00 96 1018.5
20240612103028 49 0 0.0 0.0 0.00 0.00 0.00 95 1018.5
20240612101530 49 0 0.0 0.0 0.00 0.00 0.00 95 1018.4
20240612100035 49 0 0.0 0.0 0.00 0.00 0.00 94 1018.3
20240612094530 49 0 0.0 0.0 0.00 0.00 0.00 94 1018.2
20240612093037 50 0 0.0 0.0 0.00 0.00 0.00 94 1018.1
20240612091533 50 0 0.0 0.0 0.00 0.00 0.00 94 1017.9
20240612090031 50 0 0.0 0.0 0.00 0.00 0.00 94 1017.6
20240612084530 50 0 0.0 0.0 0.00 0.00 0.00 94 1017.6
20240612083029 50 0 0.0 0.0 0.00 0.00 0.00 94 1017.6
20240612081532 50 0 0.0 0.0 0.00 0.00 0.00 94 1017.4
20240612080033 50 0 0.0 0.0 0.00 0.00 0.00 94 1017.4
20240612074538 50 0 0.0 0.0 0.00 0.00 0.00 94 1017.2
20240612073030 50 0 0.0 0.0 0.00 0.00 0.00 94 1017.3
20240612071532 50 0 0.0 0.0 0.00 0.00 0.00 94 1017.2
20240612070030 50 0 0.0 0.0 0.00 0.00 0.00 94 1017.2
20240612064538 50 0 0.0 0.0 0.00 0.00 0.00 94 1017.3
20240612063037 50 0 0.0 0.0 0.00 0.00 0.00 93 1017.4
20240612061528 50 0 0.0 0.0 0.00 0.00 0.00 93 1017.5
20240612060026 51 0 0.0 0.0 0.00 0.00 0.00 93 1017.5
20240612054528 51 0 0.0 0.0 0.00 0.00 0.00 93 1017.6
20240612053026 51 0 0.0 0.0 0.00 0.00 0.00 92 1017.6
20240612051537 51 0 0.0 0.0 0.00 0.00 0.00 92 1017.6
20240612050044 51 0 0.0 0.0 0.00 0.00 0.00 92 1017.6
20240612044535 51 0 0.0 0.0 0.00 0.00 0.00 90 1017.7
20240612043026 52 0 0.0 0.0 0.00 0.00 0.00 90 1017.6
20240612041627 52 0 0.0 0.0 0.00 0.00 0.00 89 1017.7
20240612041530 52 0 0.0 0.0 0.00 0.00 0.00 89 1017.7
20240612040037 53 0 0.0 0.0 0.00 0.00 0.00 88 1017.7
20240612034533 53 0 0.0 0.0 0.00 0.00 0.00 88 1017.6
20240612033031 53 0 0.0 0.0 0.00 0.00 0.00 87 1017.5
20240612031535 54 0 0.0 0.0 0.00 0.00 0.00 87 1017.6
20240612030030 54 0 0.0 0.0 0.00 0.00 0.00 86 1017.5
20240612024525 54 0 0.0 0.0 0.00 0.00 0.00 84 1017.5
20240612023041 55 0 0.0 0.0 0.00 0.00 0.00 82 1017.5
20240612021528 55 0 0.0 0.0 0.00 0.00 0.00 81 1017.4
20240612020038 56 0 0.0 0.0 0.00 0.00 0.00 80 1017.3
20240612014529 57 0 0.0 0.0 0.00 0.00 0.00 79 1017.1
20240612013028 58 0 0.0 0.0 0.00 0.00 0.00 77 1016.7
20240612011533 59 0 0.0 0.0 0.00 0.00 0.00 75 1016.5
20240612010031 60 0 0.0 0.0 0.00 0.00 0.00 73 1016.5
20240612004536 60 0 0.0 0.0 0.00 0.00 0.00 71 1016.5
20240612003028 61 0 0.0 0.0 0.00 0.00 0.00 69 1016.6
20240612001530 62 0 0.0 0.0 0.00 0.00 0.00 66 1016.4
20240612000051 64 0 0.0 0.0 0.00 0.00 0.00 65 1016.2
20240611234541 65 0 0.0 0.0 0.00 0.00 0.00 62 1016.3
20240611233037 66 0 0.0 2.0 0.00 0.00 0.00 59 1016.0
20240611231533 66 0 0.0 0.0 0.00 0.00 0.00 60 1015.9
20240611230032 66 284 0.0 1.0 0.00 0.00 0.00 58 1015.6
20240611224546 67 0 0.0 1.0 0.00 0.00 0.00 59 1015.8
20240611223034 68 0 0.0 2.0 0.00 0.00 0.00 56 1015.7
20240611221538 69 0 0.0 1.0 0.00 0.00 0.00 54 1015.8
20240611220032 71 0 0.0 2.0 0.00 0.00 0.00 57 1015.6
20240611214535 72 0 0.0 0.0 0.00 0.00 0.00 57 1015.7
20240611213029 73 258 0.0 1.0 0.00 0.00 0.00 50 1015.7
20240611211539 72 0 0.0 1.0 0.00 0.00 0.00 56 1015.7
20240611210040 70 0 0.0 1.0 0.00 0.00 0.00 56 1015.7
20240611204527 71 0 0.0 2.0 0.00 0.00 0.00 52 1015.7
20240611203027 69 0 0.0 1.0 0.00 0.00 0.00 56 1015.6
20240611201532 72 0 0.0 2.0 0.00 0.00 0.00 49 1015.7
20240611200104 73 162 0.0 3.0 0.00 0.00 0.00 53 1015.4
20240611194536 71 0 0.0 2.0 0.00 0.00 0.00 57 1015.5
20240611193034 73 0 0.0 2.0 0.00 0.00 0.00 53 1015.9
20240611191530 71 0 0.0 4.0 0.00 0.00 0.00 53 1016.0
20240611190031 73 0 0.0 4.0 0.00 0.00 0.00 51 1016.3
20240611184529 71 134 1.0 5.0 0.00 0.00 0.00 53 1016.4
20240611183035 70 247 0.0 2.0 0.00 0.00 0.00 52 1016.4
20240611181532 68 0 0.0 2.0 0.00 0.00 0.00 61 1016.4
20240611180034 67 0 0.0 3.0 0.00 0.00 0.00 58 1016.4
20240611174528 67 33 0.0 4.0 0.00 0.00 0.00 58 1016.5
20240611173042 65 154 0.0 4.0 0.00 0.00 0.00 60 1016.6